Home   Weather   Township of Washington   Past weeks
Flag for USA

Past Weather in Township of Washington, Kansas, USA — Yesterday and Last 2 Weeks

Now
70 °F

Passing clouds.


Feels Like: 67 °F
Forecast: 91 / 73 °F
Wind: 6 mph from West

Location: Forbes Field

Current Time: Jul 10, 2020 at 2:31:00 am

Latest Report: Jul 10, 2020 at 1:53 am


Visibility: 10 mi

Pressure: 29.97 "Hg

Humidity: 90%

Dew Point: 67 °F

Location of Township of WashingtonLocation

Past Weather in Township of Washington — Graph

°F

Township of Washington Temperature Yesterday

Maximum temperature yesterday: 87 °F (at 3:53 pm)
Minimum temperature yesterday: 67 °F (at 5:00 am)
Average temperature yesterday: 76 °F

High & Low Weather Summary for the Past Weeks

 TemperatureHumidityPressure
High96 °F (Jun 25, 3:53 pm)100% (Jun 27, 4:06 am)30.04 "Hg (Jun 27, 4:06 am)
Low67 °F (Jun 25, 4:53 am)34% (Jun 25, 2:53 pm)29.60 "Hg (Jun 28, 3:53 pm)
Average80 °F76%29.86 "Hg
* Reported Jun 25 12:53 am — Jul 10 12:53 am, Township of Washington. Weather by CustomWeather, © 2020

Note: Actual official high and low records may vary slightly from our data, if they occured in-between our weather recording intervals... More about our weather records

Township of Washington Weather History for the Previous 24 Hours

Scroll right to see more
 ConditionsComfort  
Time TempWeatherWind HumidityBarometerVisibility
12:53 am
Fri, Jul 10
71 °FClear.No wind87%29.96 "Hg10 mi
11:53 pm
Thu, Jul 9
75 °FClear.3 mph76%29.94 "Hg10 mi
10:53 pm76 °FClear.3 mph80%29.94 "Hg10 mi
9:53 pm76 °FClear.No wind80%29.92 "Hg10 mi
8:53 pm77 °FClear.5 mph77%29.90 "Hg10 mi
7:53 pm82 °FPartly sunny.8 mph65%29.89 "Hg10 mi
6:53 pm86 °FSunny.8 mph51%29.87 "Hg10 mi
5:53 pm86 °FSunny.10 mph55%29.86 "Hg10 mi
4:53 pm86 °FPassing clouds.8 mph59%29.86 "Hg10 mi
3:53 pm87 °FSunny.9 mph53%29.85 "Hg10 mi
2:53 pm86 °FSunny.9 mph57%29.85 "Hg10 mi
1:53 pm85 °FSunny.13 mph57%29.84 "Hg10 mi
12:53 pm82 °FSunny.13 mph65%29.85 "Hg10 mi
11:53 am80 °FSunny.8 mph64%29.83 "Hg10 mi
10:53 am77 °FSunny.12 mph71%29.79 "Hg10 mi
9:53 am74 °FSunny.6 mph79%29.74 "Hg10 mi
8:53 am71 °FSunny.12 mph81%29.72 "Hg10 mi
7:53 am69 °FSunny.14 mph90%29.81 "Hg10 mi
6:53 am68 °FSunny.10 mph90%29.78 "Hg10 mi
6:35 am67 °FScattered clouds.13 mph90%29.77 "Hg10 mi
5:53 am67 °FRain. Fog.12 mph90%29.91 "Hg6 mi
5:37 am67 °FRain. Fog.14 mph90%29.95 "Hg6 mi
5:22 am67 °FThunderstorms. Fog.15 mph90%29.95 "Hg6 mi
5:00 am67 °FRain. Passing clouds.16 mph90%29.95 "Hg7 mi
3:53 am68 °FThundershowers. Mostly cloudy.21 mph87%29.91 "Hg10 mi
3:28 am69 °FThundershowers. Mostly cloudy.29 mph84%29.94 "Hg10 mi
3:06 am77 °FPartly cloudy.35 mph69%29.92 "Hg10 mi
Weather by CustomWeather, © 2020

See weather overview